Temp
-30 -32 -32 -32 -32 -33 -32 -32 -33 -33 -33 -32 -32 -31 -30 -29 -28 -27 -27 -27 -26 -26 -25 -25 -25 -25 -25 -26 -25 -25 -25 -24 -24 -23 -22 -22 -22 -21 -21 -20 -20 -20 -20 -19 -19 -18 -18 -18 -18 -18 -19 -19 -18 -19
-32 -33 -33 -32 -33 -33 -33 -33 -34 -34 -34 -34 -33 -33 -33 -32 -31 -29 -28 -27 -27 -26 -26 -26 -25 -25 -25 -25 -26 -26 -25 -25 -25 -24 -23 -23 -22 -22 -21 -21 -20 -20 -20 -20 -20 -19 -19 -19 -19 -19 -19 -19 -19 -19
-33 -33 -33 -33 -33 -33 -33 -33 -33 -34 -34 -34 -34 -34 -34 -34 -34 -32 -30 -29 -28 -27 -27 -26 -26 -25 -25 -25 -26 -26 -26 -26 -25 -24 -24 -23 -23 -23 -22 -21 -21 -21 -20 -20 -20 -20 -20 -19 -19 -19 -19 -19 -19 -19
-33 -33 -33 -33 -33 -33 -33 -33 -33 -34 -34 -34 -34 -35 -35 -35 -35 -35 -34 -32 -30 -29 -28 -28 -27 -26 -26 -26 -25 -26 -26 -26 -26 -25 -25 -24 -23 -23 -23 -23 -22 -21 -21 -20 -20 -20 -20 -20 -20 -19 -19 -19 -19 -19
-33 -33 -33 -33 -33 -33 -33 -33 -33 -33 -34 -34 -35 -35 -35 -35 -35 -35 -35 -34 -34 -32 -30 -29 -29 -27 -26 -26 -26 -26 -26 -27 -27 -27 -26 -25 -24 -24 -23 -23 -22 -21 -20 -20 -20 -21 -21 -21 -20 -19 -19 -19 -19 -19
-33 -33 -33 -33 -33 -33 -33 -33 -33 -33 -34 -34 -35 -35 -35 -35 -35 -35 -35 -35 -34 -34 -32 -32 -32 -30 -28 -27 -26 -26 -26 -27 -26 -27 -26 -26 -25 -25 -24 -23 -22 -22 -21 -21 -21 -21 -21 -21 -20 -19 -20 -19 -19 -19
-33 -33 -32 -32 -32 -33 -33 -33 -33 -33 -34 -34 -35 -35 -35 -35 -35 -35 -35 -35 -34 -34 -34 -34 -33 -32 -30 -28 -27 -27 -27 -26 -27 -27 -26 -26 -27 -25 -24 -23 -23 -23 -22 -22 -22 -22 -21 -21 -21 -20 -20 -20 -19 -19
-33 -33 -33 -33 -33 -33 -33 -33 -33 -33 -33 -34 -35 -35 -35 -35 -35 -35 -35 -35 -34 -34 -34 -34 -34 -33 -33 -31 -30 -29 -28 -28 -27 -27 -26 -26 -26 -26 -24 -22 -23 -23 -22 -22 -22 -22 -22 -22 -21 -20 -20 -20 -20 -20
-34 -34 -34 -35 -35 -34 -34 -33 -33 -33 -33 -34 -35 -35 -35 -35 -35 -35 -35 -35 -34 -34 -34 -34 -34 -33 -34 -33 -32 -30 -29 -28 -27 -26 -26 -26 -26 -26 -23 -23 -22 -23 -23 -22 -22 -22 -22 -22 -21 -21 -20 -20 -20 -20
-35 -35 -35 -35 -35 -35 -35 -34 -33 -33 -34 -34 -34 -34 -34 -34 -35 -35 -35 -34 -34 -34 -34 -33 -33 -33 -34 -34 -33 -33 -31 -29 -27 -25 -26 -27 -25 -24 -24 -23 -24 -24 -23 -23 -23 -22 -22 -22 -22 -21 -21 -21 -20 -20
-35 -35 -35 -35 -35 -35 -35 -35 -34 -34 -34 -34 -34 -34 -34 -35 -35 -35 -35 -34 -34 -33 -33 -33 -33 -34 -34 -34 -34 -34 -32 -31 -29 -27 -27 -25 -24 -23 -24 -23 -23 -24 -24 -23 -23 -23 -22 -22 -22 -22 -21 -21 -21 -21
-34 -34 -34 -34 -34 -34 -34 -34 -34 -34 -34 -34 -34 -34 -35 -35 -34 -35 -34 -34 -34 -34 -33 -33 -33 -34 -34 -34 -34 -34 -33 -33 -30 -30 -29 -26 -23 -24 -24 -23 -23 -24 -24 -24 -23 -23 -23 -22 -22 -22 -22 -21 -21 -21
-34 -34 -34 -34 -34 -34 -34 -34 -34 -34 -34 -34 -34 -34 -34 -34 -34 -34 -34 -34 -33 -33 -33 -33 -33 -34 -34 -34 -34 -35 -34 -33 -31 -31 -31 -25 -24 -24 -24 -24 -24 -24 -25 -24 -23 -23 -23 -23 -23 -22 -22 -22 -22 -22
-33 -34 -34 -34 -34 -34 -34 -34 -34 -34 -34 -34 -34 -34 -34 -34 -33 -33 -33 -33 -33 -33 -33 -33 -34 -33 -34 -34 -35 -35 -35 -33 -32 -31 -29 -27 -25 -25 -24 -24 -24 -25 -24 -24 -24 -24 -24 -24 -23 -23 -23 -22 -22 -22
-33 -34 -34 -34 -34 -34 -34 -34 -34 -34 -33 -33 -33 -33 -33 -32 -32 -33 -33 -33 -33 -33 -33 -33 -34 -34 -34 -34 -34 -34 -34 -33 -31 -31 -30 -27 -26 -25 -24 -24 -24 -25 -25 -25 -25 -25 -24 -24 -24 -24 -23 -23 -22 -22
-33 -34 -34 -34 -34 -34 -34 -34 -34 -34 -33 -33 -33 -32 -32 -32 -32 -33 -33 -33 -33 -33 -33 -34 -33 -33 -33 -33 -33 -34 -33 -31 -30 -30 -30 -29 -28 -25 -24 -24 -25 -25 -26 -26 -26 -25 -25 -25 -24 -24 -24 -23 -22 -22
-33 -34 -34 -33 -33 -33 -34 -33 -33 -33 -33 -32 -32 -32 -32 -32 -32 -33 -33 -33 -33 -33 -33 -34 -33 -33 -33 -33 -33 -33 -32 -31 -30 -30 -30 -29 -28 -26 -26 -24 -26 -26 -26 -26 -26 -25 -25 -24 -24 -24 -23 -22 -23 -23
-34 -34 -34 -34 -34 -34 -34 -33 -33 -33 -32 -32 -32 -32 -32 -33 -33 -33 -33 -33 -33 -33 -33 -33 -33 -33 -33 -34 -34 -33 -32 -30 -30 -30 -29 -29 -29 -28 -28 -27 -26 -26 -26 -26 -26 -25 -25 -24 -24 -24 -24 -23 -23 -24
-33 -33 -33 -33 -33 -33 -33 -33 -32 -32 -32 -32 -33 -33 -33 -33 -33 -34 -34 -34 -34 -34 -34 -34 -34 -33 -33 -34 -34 -33 -32 -30 -30 -29 -29 -29 -29 -29 -29 -28 -27 -26 -26 -25 -26 -25 -25 -24 -24 -24 -24 -24 -24 -24
-33 -33 -33 -33 -33 -33 -33 -33 -33 -33 -33 -33 -33 -33 -33 -33 -33 -33 -34 -34 -34 -34 -34 -34 -34 -34 -34 -34 -33 -32 -30 -30 -30 -30 -29 -29 -30 -29 -29 -29 -28 -28 -27 -26 -26 -26 -26 -25 -25 -24 -24 -24 -25 -25
-33 -33 -33 -33 -32 -33 -33 -33 -33 -33 -33 -33 -33 -32 -32 -33 -33 -33 -33 -34 -34 -34 -34 -34 -34 -34 -33 -32 -31 -30 -30 -29 -30 -30 -29 -29 -29 -29 -29 -28 -28 -28 -28 -28 -27 -26 -25 -25 -25 -25 -24 -25 -24 -24
-32 -32 -32 -32 -32 -32 -32 -32 -32 -32 -32 -32 -32 -32 -32 -32 -33 -33 -33 -33 -34 -34 -34 -33 -33 -32 -31 -31 -30 -30 -30 -30 -29 -29 -29 -28 -29 -29 -29 -29 -29 -28 -28 -28 -27 -27 -26 -25 -25 -25 -24 -24 -24 -24
-31 -32 -32 -32 -32 -32 -32 -32 -31 -31 -31 -31 -31 -31 -32 -32 -32 -33 -32 -32 -31 -31 -31 -31 -31 -30 -30 -30 -30 -29 -29 -29 -29 -29 -29 -29 -29 -29 -29 -29 -29 -29 -28 -28 -27 -27 -26 -26 -26 -25 -25 -25 -25 -24
-31 -31 -31 -31 -31 -31 -31 -31 -31 -30 -30 -30 -30 -31 -31 -31 -31 -31 -31 -31 -30 -30 -30 -30 -29 -30 -30 -30 -30 -30 -30 -29 -29 -29 -29 -29 -29 -29 -29 -29 -29 -29 -28 -28 -28 -27 -27 -27 -26 -26 -26 -26 -26 -26
-31 -31 -31 -31 -31 -30 -30 -30 -31 -30 -30 -30 -30 -30 -30 -30 -30 -30 -31 -31 -30 -30 -30 -30 -30 -30 -30 -29 -30 -30 -30 -30 -30 -30 -29 -29 -29 -29 -29 -29 -29 -29 -29 -29 -29 -28 -28 -28 -28 -28 -27 -27 -27 -27
-31 -31 -31 -31 -30 -30 -30 -30 -30 -30 -30 -30 -30 -30 -30 -30 -30 -30 -30 -30 -30 -30 -30 -30 -30 -30 -30 -30 -30 -29 -29 -29 -29 -29 -29 -29 -29 -29 -29 -29 -29 -29 -29 -29 -29 -29 -29 -29 -29 -29 -28 -28 -28 -28
-31 -31 -31 -31 -30 -30 -30 -30 -30 -30 -30 -30 -30 -30 -30 -30 -30 -30 -31 -30 -30 -30 -30 -30 -30 -30 -30 -30 -30 -30 -30 -30 -30 -30 -30 -30 -30 -29 -29 -29 -29 -29 -29 -29 -30 -29 -29 -29 -29 -29 -29 -29 -29 -29
-31 -31 -31 -31 -31 -30 -30 -30 -30 -30 -30 -30 -30 -30 -30 -30 -30 -30 -30 -30 -30 -30 -30 -30 -30 -30 -30 -30 -30 -30 -30 -31 -30 -30 -30 -30 -30 -30 -30 -30 -30 -29 -29 -29 -30 -30 -30 -30 -30 -30 -30 -29 -29 -29
-32 -31 -31 -31 -31 -31 -31 -30 -30 -30 -30 -30 -30 -30 -30 -30 -31 -31 -31 -31 -31 -30 -31 -31 -31 -31 -31 -31 -31 -31 -31 -31 -31 -30 -30 -30 -30 -30 -30 -30 -30 -30 -30 -30 -30 -30 -30 -30 -30 -30 -30 -30 -30 -30
-32 -32 -31 -31 -31 -31 -31 -31 -31 -31 -31 -31 -31 -31 -31 -31 -31 -31 -31 -31 -31 -31 -31 -31 -31 -31 -31 -31 -31 -31 -31 -31 -31 -31 -31 -31 -31 -31 -31 -31 -31 -31 -31 -31 -30 -30 -30 -30 -30 -30 -30 -30 -30 -30
-32 -32 -32 -32 -31 -31 -31 -31 -31 -31 -31 -31 -31 -31 -31 -31 -31 -31 -31 -32 -32 -32 -32 -32 -31 -31 -31 -31 -31 -31 -31 -31 -31 -31 -31 -31 -31 -31 -31 -31 -31 -31 -31 -31 -31 -31 -31 -31 -31 -31 -31 -31 -31 -31
-32 -32 -32 -32 -32 -32 -31 -31 -31 -31 -31 -31 -31 -31 -31 -31 -31 -31 -32 -32 -32 -32 -32 -32 -32 -32 -32 -32 -32 -31 -31 -31 -31 -31 -32 -31 -31 -31 -31 -31 -31 -31 -31 -31 -31 -31 -31 -31 -31 -31 -31 -31 -31 -30
-32 -32 -33 -32 -32 -32 -32 -32 -32 -32 -31 -31 -31 -31 -31 -31 -31 -31 -31 -32 -32 -32 -32 -32 -32 -32 -32 -32 -32 -32 -32 -32 -32 -32 -32 -32 -32 -32 -32 -32 -32 -32 -31 -31 -31 -31 -31 -31 -31 -31 -31 -31 -31 -31
Height
5414 5410 5406 5403 5398 5393 5389 5385 5385 5387 5390 5394 5399 5405 5413 5419 5426 5431 5439 5447 5455 5464 5472 5478 5485 5492 5499 5504 5512 5522 5528 5535 5543 5550 5558 5564 5570 5580 5587 5596 5604 5611 5618 5624 5631 5637 5646 5656 5661 5667 5672 5674 5676 5678
5405 5403 5401 5398 5394 5389 5384 5379 5377 5378 5381 5384 5388 5394 5400 5406 5412 5418 5425 5432 5442 5451 5458 5464 5473 5480 5486 5494 5502 5510 5518 5524 5530 5538 5547 5553 5560 5567 5578 5583 5593 5599 5606 5615 5623 5631 5640 5647 5652 5656 5660 5664 5667 5671
5398 5396 5394 5392 5390 5386 5382 5377 5373 5372 5374 5376 5380 5384 5390 5396 5402 5407 5413 5420 5429 5437 5444 5453 5460 5466 5474 5483 5490 5501 5508 5513 5519 5528 5535 5541 5547 5556 5564 5573 5581 5588 5598 5605 5612 5620 5630 5636 5641 5646 5649 5653 5659 5663
5390 5388 5387 5386 5384 5382 5379 5376 5372 5369 5369 5371 5374 5378 5383 5388 5394 5400 5404 5410 5416 5424 5432 5438 5444 5454 5461 5470 5480 5489 5496 5503 5508 5515 5522 5529 5537 5544 5553 5560 5568 5578 5588 5596 5603 5611 5619 5625 5631 5634 5638 5644 5650 5655
5382 5380 5380 5379 5377 5376 5375 5374 5372 5370 5368 5368 5370 5373 5377 5383 5388 5393 5398 5403 5410 5416 5421 5427 5431 5439 5447 5457 5466 5475 5483 5490 5497 5503 5508 5517 5524 5531 5539 5547 5556 5567 5577 5586 5594 5604 5610 5614 5617 5621 5628 5635 5640 5646
5373 5371 5370 5369 5369 5369 5368 5368 5368 5368 5367 5368 5370 5372 5375 5378 5383 5387 5392 5399 5405 5408 5411 5418 5422 5426 5433 5443 5452 5461 5468 5476 5484 5490 5498 5503 5511 5518 5524 5535 5547 5556 5565 5576 5584 5591 5596 5602 5605 5612 5620 5625 5630 5635
5362 5360 5358 5357 5357 5357 5359 5360 5362 5363 5364 5365 5367 5370 5372 5375 5378 5382 5389 5395 5401 5404 5405 5409 5414 5418 5421 5429 5438 5446 5453 5461 5468 5476 5485 5493 5500 5503 5509 5519 5534 5543 5552 5561 5569 5579 5585 5592 5597 5603 5609 5613 5618 5624
5349 5346 5343 5341 5341 5343 5345 5349 5353 5356 5358 5360 5363 5365 5368 5371 5374 5378 5384 5389 5393 5397 5399 5403 5411 5414 5413 5417 5423 5429 5437 5441 5452 5463 5473 5481 5487 5490 5493 5511 5521 5531 5540 5549 5557 5566 5573 5579 5586 5591 5598 5604 5609 5615
5334 5330 5326 5322 5320 5323 5328 5334 5340 5346 5351 5354 5357 5360 5363 5366 5371 5378 5381 5385 5389 5393 5395 5401 5406 5409 5407 5409 5413 5419 5421 5429 5437 5446 5458 5466 5470 5475 5495 5502 5510 5522 5532 5541 5545 5552 5561 5568 5575 5581 5587 5594 5599 5604
5319 5314 5312 5312 5313 5314 5316 5319 5327 5335 5342 5346 5349 5352 5359 5365 5369 5373 5377 5380 5384 5386 5390 5396 5399 5401 5401 5403 5405 5409 5412 5420 5427 5439 5445 5444 5457 5476 5480 5492 5500 5510 5518 5525 5533 5541 5550 5556 5563 5569 5576 5582 5588 5593
5304 5301 5301 5303 5304 5306 5309 5312 5316 5325 5331 5335 5341 5349 5356 5359 5364 5368 5370 5376 5379 5380 5384 5391 5395 5397 5397 5398 5398 5399 5404 5409 5416 5427 5428 5435 5451 5468 5477 5482 5490 5500 5506 5514 5524 5531 5538 5544 5550 5556 5563 5570 5576 5582
5292 5291 5291 5292 5293 5296 5300 5305 5310 5315 5322 5331 5336 5346 5352 5355 5359 5363 5365 5371 5371 5376 5381 5386 5390 5392 5392 5393 5393 5395 5396 5398 5407 5412 5412 5419 5454 5460 5469 5475 5482 5489 5496 5504 5512 5520 5527 5533 5540 5545 5552 5559 5565 5571
5283 5279 5276 5274 5275 5280 5286 5294 5302 5308 5317 5325 5332 5339 5345 5350 5352 5355 5360 5364 5368 5374 5377 5383 5386 5385 5385 5388 5387 5388 5388 5392 5395 5398 5404 5422 5444 5448 5457 5465 5472 5479 5485 5494 5502 5509 5515 5522 5528 5535 5541 5547 5553 5559
5275 5268 5259 5255 5258 5265 5275 5286 5294 5303 5312 5320 5327 5334 5338 5341 5347 5353 5359 5364 5367 5370 5374 5378 5379 5379 5380 5380 5379 5381 5380 5380 5383 5394 5406 5418 5425 5434 5442 5450 5459 5468 5475 5484 5493 5499 5505 5511 5518 5524 5530 5535 5540 5545
5271 5261 5250 5239 5240 5256 5270 5283 5293 5301 5310 5318 5325 5329 5334 5341 5346 5351 5355 5359 5363 5365 5368 5370 5371 5373 5374 5370 5370 5371 5371 5373 5382 5394 5401 5403 5405 5412 5421 5431 5444 5456 5464 5473 5482 5489 5496 5501 5507 5514 5519 5523 5528 5532
5272 5264 5257 5252 5253 5260 5272 5283 5293 5304 5311 5319 5324 5328 5335 5341 5345 5349 5353 5355 5357 5358 5361 5362 5362 5363 5364 5363 5360 5359 5364 5369 5379 5383 5386 5389 5392 5404 5414 5423 5433 5445 5454 5462 5472 5480 5486 5492 5497 5502 5506 5512 5517 5521
5277 5271 5269 5269 5270 5275 5283 5292 5300 5307 5314 5319 5324 5330 5335 5339 5343 5345 5348 5350 5351 5352 5354 5354 5355 5356 5353 5351 5352 5355 5360 5369 5373 5377 5381 5384 5387 5395 5403 5409 5421 5433 5442 5450 5458 5466 5474 5480 5484 5489 5495 5500 5505 5512
5288 5285 5283 5283 5286 5289 5294 5301 5308 5314 5319 5323 5327 5330 5333 5337 5340 5341 5341 5342 5343 5344 5343 5345 5345 5344 5346 5345 5349 5352 5355 5361 5366 5370 5373 5378 5381 5389 5395 5400 5406 5416 5426 5436 5444 5452 5461 5468 5474 5479 5484 5488 5494 5500
5298 5297 5295 5296 5298 5301 5306 5310 5315 5319 5322 5324 5327 5329 5330 5332 5332 5332 5332 5331 5332 5333 5334 5334 5334 5337 5339 5343 5344 5345 5350 5355 5360 5366 5372 5375 5380 5386 5391 5396 5401 5409 5418 5426 5435 5442 5451 5458 5463 5468 5472 5476 5482 5487
5309 5308 5307 5308 5309 5311 5313 5317 5319 5320 5322 5323 5324 5324 5323 5322 5322 5322 5321 5321 5322 5322 5322 5325 5327 5331 5336 5340 5341 5346 5351 5357 5361 5367 5371 5375 5379 5384 5391 5393 5400 5406 5412 5419 5426 5432 5439 5446 5452 5457 5462 5466 5471 5476
5315 5314 5314 5314 5314 5315 5317 5318 5319 5319 5319 5319 5319 5318 5317 5317 5316 5316 5316 5315 5315 5316 5318 5322 5326 5330 5333 5337 5343 5348 5356 5360 5365 5370 5374 5379 5382 5384 5389 5390 5398 5403 5407 5412 5417 5422 5428 5435 5441 5446 5451 5455 5459 5463
5321 5319 5319 5320 5320 5319 5319 5319 5319 5318 5317 5317 5315 5315 5313 5311 5311 5312 5313 5312 5313 5315 5318 5322 5325 5330 5338 5343 5349 5353 5358 5362 5367 5372 5377 5380 5382 5385 5388 5390 5395 5400 5403 5407 5411 5414 5419 5423 5428 5434 5439 5444 5448 5451
5326 5325 5323 5322 5323 5323 5323 5322 5322 5321 5319 5318 5316 5315 5314 5311 5309 5310 5311 5312 5316 5320 5323 5326 5330 5336 5342 5347 5351 5357 5361 5366 5370 5374 5377 5380 5383 5386 5388 5391 5394 5397 5399 5402 5404 5407 5410 5414 5418 5423 5428 5433 5437 5441
5332 5332 5331 5330 5329 5329 5328 5326 5324 5322 5322 5322 5321 5321 5319 5319 5318 5318 5319 5322 5327 5329 5332 5335 5339 5345 5349 5354 5357 5360 5364 5368 5371 5374 5377 5380 5382 5385 5387 5388 5390 5392 5394 5395 5398 5400 5402 5405 5409 5414 5418 5422 5426 5430
5336 5336 5335 5333 5332 5332 5331 5331 5328 5327 5326 5327 5328 5327 5328 5329 5330 5330 5331 5334 5335 5338 5341 5343 5346 5350 5353 5358 5361 5364 5367 5369 5372 5374 5376 5378 5380 5382 5383 5384 5386 5387 5389 5391 5392 5394 5396 5399 5402 5406 5410 5414 5418 5421
5336 5336 5337 5335 5335 5335 5335 5334 5333 5332 5331 5331 5332 5332 5334 5334 5336 5338 5339 5340 5342 5342 5345 5347 5350 5353 5356 5359 5361 5363 5365 5368 5369 5371 5373 5374 5375 5377 5378 5380 5381 5383 5384 5386 5387 5389 5392 5395 5398 5401 5405 5409 5412 5416
5335 5335 5335 5335 5336 5336 5336 5336 5337 5336 5335 5335 5334 5335 5338 5339 5340 5342 5343 5345 5345 5347 5349 5350 5352 5354 5356 5358 5359 5361 5362 5364 5365 5366 5367 5368 5368 5369 5371 5374 5376 5379 5380 5383 5385 5387 5389 5392 5394 5397 5400 5403 5406 5409
5334 5334 5335 5336 5335 5336 5337 5337 5337 5337 5337 5337 5337 5338 5339 5340 5342 5343 5343 5345 5346 5347 5348 5349 5350 5352 5353 5355 5356 5358 5359 5360 5361 5360 5361 5362 5363 5365 5367 5369 5371 5374 5376 5378 5380 5383 5385 5388 5390 5393 5395 5398 5400 5402
5330 5331 5333 5334 5334 5335 5336 5338 5338 5338 5338 5338 5338 5338 5338 5338 5339 5340 5341 5342 5343 5344 5345 5346 5347 5348 5349 5350 5352 5353 5354 5354 5355 5356 5357 5358 5360 5362 5363 5365 5368 5371 5373 5375 5378 5380 5382 5384 5386 5389 5391 5393 5395 5396
5323 5325 5328 5330 5331 5333 5335 5336 5337 5337 5338 5338 5339 5339 5339 5339 5338 5338 5338 5338 5338 5339 5340 5341 5342 5344 5346 5347 5349 5350 5350 5352 5353 5355 5356 5357 5359 5361 5362 5364 5365 5368 5370 5373 5375 5377 5378 5380 5381 5383 5385 5386 5388 5388
5314 5318 5321 5324 5326 5329 5331 5332 5334 5335 5336 5337 5338 5339 5339 5339 5339 5338 5337 5337 5337 5338 5339 5339 5340 5342 5343 5345 5347 5348 5350 5352 5353 5355 5356 5357 5359 5360 5361 5363 5364 5366 5368 5369 5371 5372 5373 5375 5376 5377 5378 5379 5380 5381
5301 5306 5311 5316 5320 5322 5325 5327 5329 5332 5333 5335 5336 5337 5338 5339 5339 5339 5339 5338 5338 5338 5339 5340 5342 5343 5344 5346 5347 5348 5349 5351 5352 5353 5355 5356 5358 5359 5360 5361 5363 5364 5365 5366 5367 5368 5369 5369 5370 5370 5371 5371 5372 5372
5286 5292 5298 5304 5310 5314 5318 5321 5323 5325 5328 5331 5333 5335 5336 5337 5338 5339 5339 5339 5339 5339 5339 5339 5340 5342 5343 5345 5346 5347 5348 5349 5350 5352 5353 5354 5355 5356 5357 5358 5359 5360 5361 5361 5362 5362 5362 5362 5362 5363 5363 5363 5364 5364
Wind_Speed
43 31 22 22 25 26 26 25 28 30 31 35 41 45 48 50 51 53 51 51 50 49 50 49 47 43 43 45 47 49 51 54 54 56 59 57 59 61 57 56 55 55 53 52 52 51 47 38 34 33 28 30 31 26
27 21 19 19 20 22 24 22 22 24 26 29 33 37 39 40 44 50 52 52 52 51 51 52 51 49 47 46 46 46 53 52 53 52 56 59 58 60 61 58 57 58 56 52 50 47 42 37 34 36 36 36 34 31
24 21 20 19 19 19 19 24 18 19 21 24 27 30 33 34 32 37 45 48 51 52 52 52 53 54 54 50 49 47 47 53 54 53 53 57 59 57 60 63 58 57 54 52 51 49 43 41 39 38 40 40 37 35
23 23 22 22 22 20 18 18 20 13 16 19 21 23 23 29 31 22 26 33 46 48 50 52 55 55 56 55 52 49 49 50 55 55 54 54 56 58 57 58 61 59 54 52 51 47 43 42 39 41 42 42 41 38
26 25 26 26 25 22 21 18 16 14 8 9 14 18 19 18 29 28 26 25 22 28 42 46 50 55 57 57 57 54 52 53 51 43 54 57 54 58 58 58 58 59 59 53 50 41 39 39 44 46 44 40 41 40
28 28 29 31 30 28 25 20 18 14 8 2 4 8 16 16 22 29 27 25 25 19 34 33 34 41 55 58 57 58 57 57 58 55 42 44 56 55 59 60 58 56 54 54 49 43 43 43 47 46 42 42 40 39
32 34 35 36 37 35 32 27 22 19 14 11 10 10 13 17 21 27 25 22 19 25 27 25 24 29 42 53 57 58 59 61 61 64 62 49 46 54 57 59 58 56 54 51 52 47 45 45 45 46 45 44 42 40
39 42 43 45 45 39 35 33 30 27 24 18 15 14 16 21 22 25 25 26 22 22 21 26 19 21 28 34 45 54 58 64 64 64 64 63 58 56 63 59 57 58 55 53 51 50 48 47 47 49 48 45 44 42
44 45 50 42 37 36 39 37 34 34 31 26 21 19 20 20 22 21 21 20 21 18 21 24 17 16 20 24 32 41 51 59 65 66 66 66 67 65 57 56 59 54 54 50 51 51 50 49 48 48 48 46 45 44
43 39 24 19 18 18 19 24 34 34 37 33 30 25 23 18 22 23 20 21 28 27 20 18 12 7 15 19 22 28 39 50 60 67 66 72 69 58 58 55 55 53 53 53 52 51 49 52 51 49 48 46 44 43
35 28 22 21 19 17 18 16 23 33 34 43 36 23 20 23 24 25 26 25 24 15 4 12 10 14 12 10 16 23 26 33 50 59 65 71 68 60 56 53 51 49 50 52 52 50 49 49 52 53 49 48 46 45
22 21 25 28 27 28 27 24 20 29 34 41 39 27 25 26 29 29 30 28 32 29 5 2 6 13 16 22 20 21 23 32 34 35 46 67 63 62 59 55 50 48 48 47 49 50 48 50 48 48 51 49 47 45
25 29 29 30 31 32 30 30 26 27 29 40 43 35 32 36 36 35 30 31 24 11 6 4 8 14 17 18 25 22 26 38 37 30 24 59 59 63 62 60 56 49 50 45 45 47 50 47 45 47 47 47 45 44
20 28 27 26 26 24 33 32 32 31 32 41 36 36 38 37 33 31 24 21 22 18 18 21 15 18 20 23 26 28 29 38 47 31 19 39 51 57 63 62 60 56 50 45 42 43 46 47 47 44 44 45 45 48
20 26 19 10 21 29 37 31 31 33 40 36 37 37 32 25 23 24 21 18 19 22 22 26 30 33 29 30 33 37 36 37 39 29 30 45 47 56 62 63 61 56 54 47 44 42 40 39 42 44 44 44 46 46
17 21 17 10 15 28 36 37 35 39 40 37 34 31 27 21 15 19 21 21 24 27 27 30 27 29 31 33 34 36 35 31 36 30 30 30 41 52 53 60 57 52 50 48 49 44 41 40 39 42 48 48 46 46
22 20 21 21 21 26 31 34 36 38 38 31 26 22 20 21 17 17 19 24 28 29 26 25 26 35 35 34 33 23 20 40 25 18 12 19 32 38 43 53 45 49 49 51 48 52 45 42 42 46 47 48 50 47
18 15 16 23 23 26 28 28 29 27 22 18 16 17 20 22 22 22 24 24 24 23 25 26 29 30 33 32 25 26 39 42 22 19 16 19 27 38 37 40 46 46 48 53 53 49 50 43 42 44 44 44 44 45
23 24 21 19 21 24 25 24 20 14 10 12 17 18 18 20 21 24 27 27 29 29 30 32 34 35 23 22 26 24 45 34 20 24 26 25 25 29 37 42 43 44 41 41 49 50 44 37 37 39 39 42 45 45
16 19 20 19 18 17 17 15 11 8 8 9 13 17 21 23 25 26 30 31 35 38 35 28 19 19 19 16 19 39 27 15 22 26 26 22 20 23 21 18 17 25 32 36 37 41 45 44 41 39 41 42 44 47
9 8 6 11 11 7 8 8 8 8 13 14 13 17 21 23 25 23 17 15 18 13 6 6 7 10 18 22 37 21 18 19 18 21 25 25 21 22 21 18 20 21 21 23 28 33 36 41 45 42 41 41 42 45
18 18 16 14 12 8 6 1 2 3 6 8 9 11 8 9 14 18 16 12 4 2 4 13 20 23 26 26 29 22 25 22 23 21 19 18 15 15 17 17 22 24 24 27 30 30 34 39 42 44 44 44 42 43
11 12 11 11 9 7 3 2 1 2 4 6 8 11 12 14 12 12 15 19 28 34 29 24 23 31 31 30 28 21 21 17 19 19 16 15 14 14 14 13 15 18 21 27 30 32 35 38 40 41 41 40 40 40
4 7 11 11 11 10 10 10 10 10 15 15 13 12 14 18 23 26 25 29 28 20 24 32 32 28 22 21 25 26 25 24 23 23 21 18 15 13 8 7 10 17 21 21 22 30 33 35 39 41 41 41 41 42
4 4 6 11 12 8 5 8 12 8 15 16 13 8 14 16 21 23 19 19 16 20 25 24 20 16 12 7 8 9 14 17 17 18 18 15 16 16 12 10 15 16 20 22 21 20 23 25 20 22 25 27 27 29
9 9 6 5 6 7 7 10 11 12 11 10 12 15 13 16 17 17 14 10 16 19 15 6 3 6 9 5 4 6 5 8 12 14 18 22 22 18 13 10 12 13 15 16 15 13 12 12 14 15 17 19 20 20
10 11 9 9 5 3 4 5 5 5 8 9 8 10 18 17 19 14 7 9 15 11 9 8 8 10 11 10 10 10 12 12 10 14 15 16 19 18 16 14 14 12 9 8 10 15 13 13 15 16 19 21 23 26
15 12 10 11 8 6 3 4 4 8 9 7 8 8 6 7 9 10 14 15 14 13 11 12 11 12 13 14 14 16 14 14 13 15 16 15 14 15 15 17 20 20 16 21 18 16 17 19 18 19 20 21 22 23
21 18 15 12 9 7 8 10 8 9 10 11 12 11 5 3 8 12 16 18 20 20 20 21 22 22 21 20 19 17 16 15 13 8 7 10 10 9 9 14 19 20 23 20 19 17 16 15 16 17 18 19 20 22
27 27 23 20 16 14 14 12 10 10 7 5 7 8 10 12 5 3 6 8 11 13 14 16 16 14 12 10 11 9 7 4 6 9 9 7 7 7 7 8 9 11 13 17 19 19 20 20 21 22 23 23 23 24
34 32 30 25 22 21 20 16 13 11 8 3 2 2 5 9 9 11 7 4 3 2 3 5 6 7 7 8 8 10 12 13 12 8 5 7 8 8 8 8 9 10 10 11 12 13 14 16 17 18 19 20 21 22
41 39 36 32 27 24 20 21 20 17 14 10 6 6 5 5 8 9 8 8 4 2 6 8 7 8 9 9 9 9 9 9 8 8 9 10 10 11 10 10 10 9 9 9 10 10 11 14 16 18 19 20 20 20
50 46 45 37 33 28 24 22 24 22 20 17 13 12 9 4 4 7 7 7 6 4 1 3 6 11 11 11 10 10 11 11 12 13 13 13 14 14 15 15 14 13 13 13 14 14 14 14 14 15 15 16 17 18
Wind_Direction
309 306 310 321 321 320 314 292 270 257 250 245 240 237 237 237 237 238 236 235 233 231 228 226 229 228 225 229 227 217 223 226 226 229 226 226 225 222 223 221 222 225 226 229 233 237 238 234 234 233 231 227 230 233
301 294 302 314 330 335 340 321 283 260 252 243 236 235 229 229 233 234 236 235 234 233 231 228 226 230 229 225 228 224 222 224 228 229 230 226 228 227 224 225 223 226 226 228 232 236 239 237 235 233 229 227 229 236
294 287 294 306 315 330 337 345 319 265 254 249 238 226 223 221 220 231 233 236 233 232 232 231 229 227 230 229 226 226 225 223 225 226 230 230 229 229 228 226 226 228 228 229 230 232 234 237 236 235 233 231 229 233
289 285 287 295 305 309 326 334 348 313 260 249 237 223 219 216 212 217 225 227 234 233 232 232 231 229 227 229 227 224 222 223 228 226 226 231 232 232 231 231 230 228 228 229 231 231 231 233 234 236 235 234 234 234
289 286 284 287 292 292 296 311 326 336 333 245 232 221 211 211 209 211 215 214 233 248 238 234 233 231 229 227 228 225 222 219 219 229 232 228 231 233 232 232 230 229 229 229 231 234 231 230 230 233 235 234 236 238
290 284 281 281 282 282 276 282 291 301 301 271 212 213 209 200 207 204 209 213 208 240 254 239 235 236 231 227 227 227 226 221 218 216 213 232 230 231 233 232 230 231 231 231 231 231 228 227 232 231 235 238 237 237
293 289 285 281 278 275 269 265 263 270 265 241 228 233 225 211 209 209 205 204 215 242 251 246 243 243 238 230 227 227 228 226 222 219 219 214 227 232 231 229 227 229 230 229 230 229 230 228 230 233 233 234 237 238
293 291 287 285 281 272 263 254 246 251 254 236 226 229 227 222 214 211 210 210 213 226 242 256 272 259 256 242 233 229 228 229 225 223 222 222 221 229 230 227 227 227 227 229 229 227 227 227 228 232 234 236 238 240
292 293 293 287 280 272 260 249 239 236 243 236 222 221 223 221 212 206 214 221 225 228 250 252 268 245 253 254 245 236 233 231 230 226 224 224 223 226 230 231 231 228 227 227 230 230 226 228 230 231 234 235 238 242
302 300 281 279 273 263 266 241 229 225 228 234 217 219 223 216 211 212 210 216 228 239 252 261 204 201 244 245 249 243 237 235 233 230 228 227 227 227 230 232 233 232 228 227 227 230 230 228 229 231 233 234 235 237
302 293 262 259 262 257 252 245 222 211 217 217 223 225 218 215 215 208 217 223 216 199 183 183 229 240 247 271 247 244 232 234 234 232 236 232 227 227 229 232 234 232 231 228 226 227 230 231 230 230 232 232 234 236
303 292 275 267 261 253 249 241 219 203 213 210 223 217 208 212 215 212 224 213 219 230 196 174 282 259 254 257 276 245 221 214 220 234 238 234 223 228 228 231 233 233 233 229 226 226 228 231 234 235 232 235 235 235
313 300 288 273 258 241 227 218 206 194 203 200 207 213 209 207 217 214 214 210 211 199 178 174 273 304 249 265 267 251 233 206 201 212 237 232 225 227 228 229 231 232 236 232 227 226 228 229 233 235 237 235 232 234
328 328 309 271 244 220 200 197 197 189 195 195 204 201 208 211 212 210 211 221 239 221 224 231 253 258 284 276 261 249 244 218 206 201 221 231 229 226 228 229 229 230 234 235 229 230 229 228 231 234 235 236 238 237
339 342 352 319 197 187 181 177 185 186 186 190 189 197 207 210 214 219 218 227 228 235 246 263 271 277 261 267 275 275 246 224 204 209 214 226 225 221 220 225 226 227 232 232 232 228 225 228 231 233 234 233 236 239
7 28 33 84 137 160 166 172 177 182 183 187 197 211 215 221 232 233 244 252 252 254 260 267 282 264 265 291 286 276 255 199 178 178 185 202 215 222 222 220 223 224 228 233 231 229 225 227 232 233 233 234 234 238
51 59 53 79 111 139 154 163 170 180 187 194 207 217 220 224 234 248 259 262 263 268 273 271 276 277 279 284 284 278 225 179 176 171 189 213 203 203 215 217 217 221 223 228 231 231 232 231 234 235 236 237 238 239
65 74 73 96 114 133 144 158 171 179 187 206 222 232 237 247 259 262 264 267 266 263 260 266 268 274 289 292 281 278 194 185 162 165 155 163 195 195 184 197 204 212 218 222 227 230 230 234 235 235 240 242 241 239
67 70 86 107 126 137 148 161 168 183 205 240 239 243 246 249 253 258 265 267 264 261 263 271 273 283 285 289 265 230 201 189 147 143 159 160 166 191 209 212 206 210 216 220 224 229 230 228 230 232 238 241 239 239
73 74 85 92 105 114 125 135 143 168 203 235 250 248 250 250 258 264 265 264 265 267 267 262 267 266 276 231 209 203 180 153 138 136 155 166 164 170 181 175 195 209 216 219 222 225 226 228 232 234 236 239 240 241
38 45 70 89 108 131 136 170 205 236 233 237 245 256 260 258 257 258 269 276 266 247 247 282 277 281 200 181 184 172 177 181 177 169 168 183 180 178 188 184 202 203 205 212 215 217 222 227 229 230 234 236 238 238
89 91 102 114 123 123 131 79 359 263 239 257 259 288 301 287 256 258 258 283 325 34 151 184 179 158 156 173 181 186 166 147 160 182 183 178 176 186 193 193 205 215 224 226 223 221 220 220 222 225 229 231 234 235
73 64 84 77 78 81 86 89 111 295 285 309 319 342 33 50 71 110 124 138 146 144 137 131 115 114 113 126 140 155 152 156 171 181 181 175 178 188 194 204 218 228 233 235 233 227 225 226 225 225 227 229 232 236
93 82 97 98 95 90 89 76 52 22 67 117 93 84 74 64 94 111 133 148 126 117 115 114 111 121 119 140 154 165 169 180 186 180 183 195 192 187 202 255 256 236 235 238 243 244 243 238 232 234 234 235 236 237
170 135 110 98 84 74 83 83 86 72 64 87 122 128 127 124 115 128 125 118 116 102 112 118 117 110 109 130 152 165 174 184 195 201 200 209 228 257 278 280 271 261 249 255 265 260 250 245 239 239 238 234 231 234
203 197 169 119 97 95 74 66 65 67 57 67 100 147 155 142 148 146 148 167 137 158 165 176 198 178 139 138 161 178 203 227 236 244 245 252 258 264 264 256 248 244 249 243 246 236 215 220 221 225 229 232 227 227
214 210 191 190 185 159 131 105 102 121 105 85 70 107 142 154 163 156 165 174 175 178 205 211 216 210 214 228 233 226 228 230 243 245 246 244 242 230 224 232 236 227 206 210 188 182 211 214 215 220 217 214 221 227
227 220 214 210 196 193 196 194 135 115 117 128 141 152 163 167 185 206 209 220 227 238 234 236 241 241 245 249 250 253 269 255 274 250 257 259 247 225 229 227 217 214 216 192 215 219 212 216 218 217 221 224 228 232
235 231 228 217 213 216 204 197 163 132 116 97 80 76 78 187 209 219 225 229 233 238 246 250 254 259 267 275 279 284 280 269 253 247 249 236 219 220 219 212 210 213 219 228 228 212 203 210 215 221 229 234 240 245
238 240 236 232 226 211 209 197 180 168 141 98 77 59 48 48 65 202 232 242 247 250 253 256 258 257 257 262 259 240 199 186 227 243 247 245 228 218 211 207 212 219 222 224 226 229 235 240 241 244 246 247 247 247
229 233 235 229 217 210 209 206 207 202 200 194 222 299 16 20 31 48 52 80 122 142 180 180 176 177 187 196 199 204 208 216 224 230 244 228 218 206 201 206 210 217 224 230 235 240 245 247 249 251 252 254 256 258
219 218 222 221 219 219 218 217 214 218 221 223 220 239 270 331 356 10 36 44 23 231 213 202 187 201 214 215 215 214 213 216 221 227 226 223 228 231 228 223 223 230 241 249 254 259 264 261 258 257 259 262 264 266
214 212 209 213 216 221 225 223 216 209 217 225 229 227 233 260 311 323 338 355 29 31 341 231 225 234 236 240 243 241 240 240 244 248 249 247 244 238 239 242 250 260 269 274 277 275 271 268 264 262 260 261 262 263